Visibility
9.8 8.6 12.7 4.3 5.7 14.5 15.0 15.0 15.0 15.0 15.0 15.0 15.0 15.0 15.0 15.0 15.0 15.0 15.0 15.0 5.3 0.0 15.0 15.0 15.0 15.0 15.0 15.0 15.0 15.0 15.0 15.0 15.0 15.0 15.0 15.0 15.0 15.0 15.0 15.0 15.0 15.0 15.0 15.0 15.0 15.0 15.0 15.0 15.0 15.0 15.0 15.0 15.0 15.0
8.4 6.2 8.6 7.8 7.9 5.3 15.0 15.0 15.0 15.0 15.0 15.0 15.0 15.0 15.0 15.0 15.0 15.0 15.0 15.0 15.0 1.2 15.0 15.0 15.0 15.0 15.0 15.0 15.0 15.0 15.0 15.0 15.0 15.0 15.0 15.0 15.0 15.0 15.0 15.0 15.0 15.0 15.0 15.0 15.0 15.0 15.0 15.0 15.0 15.0 15.0 15.0 15.0 15.0
15.0 13.7 8.0 9.3 5.4 8.4 7.9 7.8 15.0 15.0 15.0 15.0 15.0 15.0 15.0 15.0 15.0 15.0 15.0 15.0 15.0 12.7 15.0 15.0 15.0 15.0 15.0 15.0 15.0 15.0 15.0 15.0 15.0 15.0 15.0 15.0 15.0 15.0 15.0 15.0 15.0 15.0 15.0 15.0 15.0 15.0 15.0 15.0 15.0 15.0 15.0 15.0 15.0 15.0
15.0 6.8 8.7 7.5 7.9 8.1 5.2 6.2 5.4 9.8 15.0 15.0 15.0 15.0 15.0 15.0 15.0 15.0 15.0 15.0 15.0 15.0 8.2 15.0 15.0 15.0 15.0 15.0 15.0 15.0 15.0 15.0 15.0 15.0 15.0 15.0 15.0 15.0 15.0 15.0 15.0 15.0 15.0 15.0 15.0 15.0 15.0 15.0 15.0 15.0 15.0 15.0 15.0 15.0
15.0 15.0 4.8 8.3 9.7 8.4 8.6 4.2 5.8 6.7 3.4 11.1 15.0 15.0 15.0 15.0 15.0 15.0 15.0 15.0 15.0 15.0 15.0 15.0 15.0 15.0 15.0 15.0 15.0 15.0 15.0 15.0 15.0 15.0 15.0 15.0 15.0 15.0 15.0 15.0 15.0 15.0 15.0 15.0 15.0 15.0 15.0 15.0 15.0 15.0 15.0 15.0 15.0 15.0
15.0 15.0 15.0 6.1 10.1 7.2 8.4 6.5 5.6 6.6 4.4 3.3 4.8 6.3 10.9 15.0 15.0 15.0 15.0 15.0 15.0 15.0 15.0 0.2 1.8 2.9 15.0 15.0 15.0 15.0 15.0 15.0 15.0 15.0 15.0 15.0 15.0 15.0 15.0 15.0 15.0 15.0 15.0 15.0 15.0 15.0 15.0 15.0 15.0 15.0 15.0 15.0 15.0 15.0
15.0 15.0 15.0 15.0 12.8 6.4 6.8 15.0 6.3 3.4 3.9 4.6 2.7 3.0 5.7 15.0 14.6 15.0 15.0 15.0 15.0 15.0 1.5 0.1 0.2 0.6 8.5 15.0 15.0 13.6 15.0 15.0 15.0 15.0 15.0 15.0 14.7 15.0 15.0 15.0 15.0 15.0 15.0 15.0 15.0 15.0 15.0 15.0 15.0 15.0 15.0 15.0 15.0 15.0
15.0 15.0 15.0 15.0 15.0 14.7 7.7 10.4 13.2 4.6 2.7 3.7 2.8 2.2 2.5 4.4 5.9 11.3 15.0 15.0 15.0 15.0 0.2 0.1 0.1 0.6 1.9 7.1 5.4 15.0 10.4 15.0 15.0 15.0 12.7 15.0 5.3 14.5 3.9 15.0 15.0 15.0 15.0 15.0 15.0 15.0 15.0 15.0 15.0 15.0 15.0 15.0 15.0 15.0
15.0 15.0 15.0 15.0 15.0 15.0 15.0 8.5 6.7 5.8 2.8 2.1 1.8 1.9 1.1 0.3 0.3 0.2 15.0 15.0 15.0 1.3 0.1 0.1 0.8 2.1 1.6 10.8 15.0 3.7 15.0 13.4 11.9 15.0 15.0 15.0 14.9 5.0 15.0 15.0 15.0 15.0 15.0 15.0 15.0 15.0 15.0 15.0 15.0 15.0 15.0 15.0 15.0 15.0
15.0 15.0 15.0 15.0 15.0 15.0 15.0 14.9 4.8 4.2 1.5 1.7 2.4 0.1 0.1 0.0 1.2 12.6 0.1 0.1 0.1 0.1 0.1 0.1 12.0 7.8 14.9 14.8 14.4 14.5 15.0 15.0 15.0 15.0 15.0 14.7 15.0 15.0 15.0 15.0 15.0 15.0 15.0 15.0 15.0 15.0 15.0 15.0 15.0 15.0 15.0 15.0 15.0 15.0
15.0 15.0 15.0 15.0 15.0 15.0 15.0 9.2 5.7 2.4 2.3 3.1 0.1 0.1 0.0 0.1 0.0 0.1 0.1 0.1 0.1 0.2 0.4 0.7 15.0 1.7 15.0 12.7 15.0 4.2 0.1 13.7 15.0 15.0 15.0 15.0 15.0 15.0 15.0 15.0 15.0 15.0 15.0 15.0 15.0 15.0 15.0 15.0 15.0 15.0 15.0 15.0 15.0 15.0
15.0 15.0 15.0 15.0 15.0 15.0 15.0 10.2 9.1 2.4 0.2 2.2 0.1 0.1 0.0 0.1 0.1 0.1 0.1 0.1 0.1 3.6 1.1 10.1 15.0 15.0 6.6 15.0 0.3 0.1 0.1 0.2 7.1 15.0 13.5 15.0 15.0 15.0 15.0 15.0 15.0 15.0 15.0 15.0 15.0 15.0 15.0 15.0 15.0 15.0 15.0 15.0 15.0 15.0
15.0 14.0 15.0 15.0 15.0 15.0 15.0 6.2 15.0 5.5 1.0 0.1 0.1 0.1 0.1 0.1 0.1 0.1 0.1 0.3 3.4 1.9 3.4 13.1 5.6 15.0 12.5 2.3 0.1 0.1 0.1 0.3 15.0 15.0 14.6 15.0 15.0 15.0 15.0 15.0 15.0 15.0 15.0 15.0 15.0 15.0 15.0 15.0 15.0 15.0 15.0 15.0 15.0 14.0
15.0 14.8 13.5 15.0 15.0 15.0 15.0 4.5 7.2 14.4 2.6 0.1 0.1 0.1 0.1 0.1 0.2 0.8 5.2 15.0 15.0 15.0 15.0 15.0 15.0 15.0 9.1 0.1 0.1 0.1 0.2 13.8 15.0 15.0 15.0 15.0 15.0 15.0 15.0 15.0 15.0 15.0 15.0 15.0 15.0 15.0 15.0 15.0 15.0 15.0 15.0 15.0 15.0 15.0
15.0 14.4 12.8 15.0 15.0 15.0 15.0 4.3 4.9 3.1 0.1 0.1 0.1 0.1 0.1 0.5 0.5 5.7 15.0 15.0 15.0 15.0 15.0 12.9 6.6 5.4 0.2 0.1 0.1 0.1 0.2 6.6 15.0 15.0 7.6 15.0 15.0 15.0 15.0 15.0 15.0 15.0 15.0 15.0 15.0 15.0 15.0 15.0 15.0 15.0 15.0 15.0 15.0 15.0
15.0 7.3 14.7 15.0 15.0 15.0 12.4 5.6 0.5 0.2 0.1 0.1 0.1 0.1 0.4 1.1 0.9 0.6 15.0 15.0 15.0 15.0 15.0 2.1 0.1 0.1 0.1 0.1 0.3 2.2 15.0 15.0 15.0 4.3 13.7 15.0 15.0 15.0 15.0 15.0 15.0 15.0 15.0 15.0 15.0 15.0 15.0 15.0 15.0 15.0 15.0 15.0 15.0 15.0
11.9 12.9 15.0 15.0 15.0 15.0 5.2 0.9 0.1 0.1 0.1 0.1 0.1 0.4 1.7 6.9 14.3 11.4 9.2 14.3 15.0 13.7 0.4 0.1 0.1 0.1 0.1 0.2 0.5 15.0 15.0 15.0 13.5 15.0 15.0 15.0 15.0 15.0 15.0 15.0 15.0 15.0 15.0 15.0 15.0 15.0 15.0 15.0 15.0 15.0 15.0 15.0 15.0 15.0
6.6 15.0 15.0 15.0 2.3 1.3 0.1 0.1 0.1 0.1 0.1 0.1 0.4 1.5 3.1 15.0 15.0 3.2 0.2 1.0 0.4 0.1 0.1 0.1 0.2 0.1 0.4 5.4 15.0 15.0 15.0 15.0 15.0 15.0 15.0 15.0 15.0 15.0 15.0 15.0 15.0 15.0 15.0 15.0 15.0 15.0 15.0 15.0 15.0 15.0 15.0 15.0 15.0 15.0
12.1 15.0 15.0 15.0 13.1 1.7 0.1 0.1 0.1 0.1 0.1 1.1 3.1 2.6 4.2 2.2 1.9 4.7 0.8 0.2 0.1 0.1 0.1 0.1 0.1 0.3 10.7 15.0 15.0 15.0 15.0 15.0 15.0 15.0 15.0 15.0 15.0 15.0 15.0 15.0 15.0 15.0 15.0 15.0 15.0 15.0 15.0 15.0 15.0 15.0 15.0 15.0 15.0 15.0
15.0 15.0 13.8 15.0 5.2 0.1 0.1 0.1 0.1 0.1 0.1 0.1 0.9 0.5 0.3 0.3 0.2 0.1 0.1 0.1 0.1 0.1 0.1 0.1 0.8 15.0 15.0 15.0 15.0 15.0 15.0 15.0 15.0 15.0 15.0 15.0 15.0 15.0 15.0 15.0 15.0 15.0 15.0 15.0 15.0 15.0 15.0 15.0 15.0 15.0 15.0 15.0 10.3 13.3
0.7 0.0 0.0 0.8 0.1 0.1 0.1 0.2 0.1 0.1 0.1 0.1 0.2 0.2 0.1 0.1 0.1 0.1 0.1 0.1 0.1 0.1 1.5 12.5 15.0 15.0 10.9 15.0 15.0 15.0 15.0 15.0 15.0 15.0 15.0 15.0 15.0 15.0 15.0 15.0 15.0 15.0 15.0 15.0 15.0 15.0 15.0 15.0 15.0 15.0 15.0 15.0 15.0 15.0
0.0 0.0 0.1 0.1 0.1 0.1 0.2 0.1 0.2 0.2 0.1 0.1 0.1 0.1 0.1 0.1 0.1 0.1 0.1 0.1 0.2 14.5 15.0 15.0 15.0 15.0 13.8 5.4 11.2 15.0 15.0 15.0 15.0 15.0 15.0 15.0 15.0 15.0 15.0 15.0 15.0 15.0 15.0 15.0 15.0 15.0 15.0 15.0 15.0 15.0 15.0 15.0 15.0 15.0
7.6 0.1 0.1 0.1 0.1 0.1 0.1 0.2 0.1 0.1 0.1 0.1 0.1 0.1 0.1 0.1 0.1 0.1 0.1 0.3 15.0 15.0 15.0 15.0 3.7 4.2 14.2 12.6 15.0 15.0 15.0 15.0 15.0 15.0 15.0 15.0 15.0 15.0 15.0 15.0 15.0 15.0 15.0 15.0 15.0 15.0 15.0 15.0 15.0 15.0 15.0 15.0 15.0 15.0
0.9 0.2 0.2 0.1 0.1 0.1 0.2 0.5 0.4 1.0 0.2 0.2 0.1 0.1 0.1 0.2 0.1 0.1 0.2 7.8 15.0 15.0 15.0 15.0 14.3 8.0 15.0 15.0 15.0 15.0 15.0 15.0 15.0 15.0 15.0 15.0 15.0 15.0 15.0 15.0 15.0 15.0 15.0 15.0 15.0 15.0 15.0 15.0 15.0 14.4 15.0 15.0 15.0 12.3
0.3 0.1 0.1 0.1 0.2 0.3 2.2 0.6 0.6 0.6 2.8 0.4 0.1 0.1 0.1 0.1 0.1 0.1 4.5 15.0 15.0 15.0 15.0 15.0 2.6 2.4 7.1 15.0 15.0 15.0 15.0 15.0 15.0 15.0 15.0 15.0 15.0 15.0 15.0 15.0 15.0 15.0 15.0 15.0 15.0 15.0 15.0 14.8 15.0 14.4 12.3 11.8 12.5 9.0
0.1 0.4 5.2 4.0 1.6 15.0 13.5 6.9 7.3 8.7 7.1 0.2 0.1 0.1 0.1 0.1 0.1 0.3 15.0 15.0 15.0 15.0 15.0 15.0 15.0 15.0 15.0 15.0 15.0 15.0 15.0 15.0 15.0 15.0 15.0 15.0 15.0 15.0 15.0 15.0 15.0 15.0 15.0 15.0 15.0 15.0 15.0 15.0 15.0 6.9 14.9 15.0 12.2 1.5
0.7 1.7 1.4 15.0 12.0 15.0 2.9 8.2 11.9 15.0 2.7 0.2 0.1 0.2 0.1 0.1 0.7 15.0 15.0 15.0 15.0 15.0 15.0 15.0 15.0 15.0 15.0 15.0 12.7 15.0 5.4 11.9 15.0 15.0 15.0 15.0 15.0 15.0 15.0 15.0 15.0 15.0 15.0 15.0 15.0 15.0 15.0 15.0 15.0 15.0 15.0 15.0 15.0 15.0
14.6 5.8 7.8 1.1 2.6 4.6 14.8 15.0 12.5 5.5 0.3 0.1 0.1 0.1 0.4 1.7 4.9 10.5 8.7 14.3 3.6 5.6 7.2 14.4 15.0 15.0 15.0 5.2 6.2 15.0 15.0 15.0 15.0 15.0 15.0 15.0 15.0 15.0 15.0 15.0 15.0 15.0 12.8 8.2 15.0 15.0 15.0 15.0 15.0 15.0 15.0 14.8 15.0 15.0
12.0 15.0 15.0 0.8 0.8 0.2 0.1 0.2 0.1 0.1 0.2 0.3 0.1 0.1 0.1 0.5 2.0 1.9 12.7 1.4 1.9 1.7 7.4 15.0 14.0 15.0 14.9 9.9 14.9 15.0 15.0 15.0 15.0 15.0 15.0 15.0 15.0 15.0 15.0 15.0 15.0 4.8 12.7 13.6 14.1 3.4 6.2 8.5 13.7 13.6 15.0 13.4 15.0 15.0
2.0 2.0 3.6 1.5 0.3 0.3 0.2 0.3 0.1 0.1 0.1 0.1 0.1 0.1 0.1 0.3 0.6 1.0 2.6 4.8 4.7 4.3 2.1 6.9 8.6 15.0 15.0 13.7 4.2 3.9 6.0 14.0 15.0 15.0 15.0 15.0 15.0 15.0 15.0 15.0 15.0 13.7 6.6 9.2 4.4 4.7 4.1 0.8 0.4 0.2 0.3 3.7 4.1 4.1
0.3 0.7 2.3 1.7 0.6 0.3 0.1 0.1 0.1 0.1 0.1 0.1 0.1 0.1 0.1 0.1 1.3 5.2 3.4 2.4 2.3 4.3 13.1 13.3 15.0 15.0 15.0 15.0 15.0 15.0 15.0 14.2 10.0 15.0 15.0 15.0 15.0 15.0 15.0 15.0 14.8 8.4 6.6 9.6 4.1 4.1 4.3 1.3 1.8 2.0 1.4 2.3 0.5 6.8
0.2 0.1 0.1 0.1 0.1 0.1 0.1 0.1 0.1 0.1 0.1 0.1 0.1 0.1 0.2 6.2 3.7 8.4 1.5 5.4 12.2 3.6 0.7 5.6 12.4 15.0 11.2 15.0 14.8 10.0 15.0 15.0 15.0 14.9 13.7 11.0 15.0 6.3 5.1 4.1 4.6 7.0 5.8 4.1 4.1 4.1 4.1 4.1 4.0 4.0 4.1 9.2 14.8 12.7
0.1 0.1 0.1 0.1 0.1 0.1 0.1 0.1 0.1 0.1 0.1 0.1 0.2 2.9 2.5 3.7 1.8 0.9 8.3 1.6 1.1 1.3 1.6 2.0 2.9 5.3 4.9 4.7 3.5 3.2 2.8 3.9 3.9 9.8 12.0 13.7 15.0 6.1 2.6 4.2 6.5 9.9 5.3 4.1 4.1 3.9 2.8 2.7 3.6 4.1 4.1 4.1 11.3 15.0